Vorticity
4 3 6 5 5 6 6 5 4 5 3 5 5 6 5 4 5 5 5 4 5 6 5 4 8 8 7 5 7 5 3 1 3 1 -3 1 9 8 9 10 8 6 6 7
2 -6 1 6 5 3 1 3 5 5 6 6 6 5 5 4 4 4 4 5 4 3 4 6 5 6 7 10 10 8 5 6 7 7 9 15 5 9 12 7 6 7 8 8
2 -4 -0 8 10 5 6 7 8 8 7 7 7 4 5 5 6 6 5 4 3 4 5 6 9 11 11 9 9 7 6 8 9 10 5 3 10 17 5 -1 2 9 7 5
4 5 14 6 2 7 11 9 7 5 5 4 4 2 7 7 7 5 4 6 6 6 7 10 8 9 10 9 9 7 9 8 9 23 27 20 12 3 9 6 4 7 -2 0
17 14 13 12 13 7 5 7 5 4 4 3 7 7 10 8 5 6 8 10 13 10 9 11 12 12 12 11 8 11 7 4 7 7 4 5 9 -16 -0 4 15 -1 15 22
22 18 13 19 15 9 6 7 8 8 10 8 8 9 9 5 8 11 16 16 15 16 16 14 11 9 5 4 6 6 6 3 1 0 12 12 10 18 18 12 20 15 14 13
1 12 14 8 7 12 10 12 11 9 7 7 6 7 5 9 12 12 11 13 14 13 12 8 8 10 9 11 6 6 13 18 10 5 9 28 18 11 10 15 10 9 14 10
18 10 14 12 10 12 9 7 3 7 6 5 7 11 15 9 12 13 12 13 10 6 9 12 9 12 10 11 9 -4 -4 3 6 14 22 16 56 14 17 6 -1 11 4 8
15 12 10 8 10 7 7 6 13 12 10 9 6 9 6 11 14 10 9 5 10 10 11 10 9 12 9 8 10 8 2 6 23 23 20 16 10 2 8 13 14 21 10 23
-1 9 12 5 9 14 12 11 14 12 13 11 7 7 12 14 9 10 13 10 10 8 9 10 8 7 9 14 15 23 10 17 19 5 6 17 17 19 10 -3 13 14 7 18
8 7 7 5 8 10 16 9 5 5 5 10 14 9 14 8 16 5 10 11 9 6 3 5 5 7 6 11 5 4 11 17 17 3 1 24 9 3 -1 12 18 19 21 19
8 5 8 9 -3 -1 1 2 3 7 8 8 9 10 12 14 3 9 10 10 7 6 7 6 6 16 9 11 25 26 19 13 16 11 15 15 5 8 6 25 26 10 1 7
10 7 9 10 7 12 -1 18 21 10 8 9 8 8 13 7 7 10 6 6 4 4 9 13 18 13 21 15 4 11 11 6 15 8 9 5 2 -5 30 6 3 10 25 24
-1 -4 7 15 18 13 13 9 10 6 7 8 7 12 6 12 10 6 4 3 3 14 16 12 25 20 -12 21 12 33 17 12 15 14 10 5 4 32 9 3 17 26 24 20
17 20 9 -1 -2 14 13 26 3 8 10 12 -5 21 -2 7 10 7 7 4 15 16 10 22 11 4 16 4 9 14 3 16 17 15 4 5 26 11 5 15 34 6 -0 1
2 2 7 16 17 16 11 14 15 5 6 9 5 14 14 16 10 7 11 13 24 12 14 21 -2 -14 6 5 2 12 20 13 6 3 6 4 19 3 8 37 -0 4 9 10
18 11 12 15 22 12 9 18 11 9 9 16 14 9 6 7 8 13 18 14 15 15 8 15 13 7 2 6 8 20 3 13 9 5 29 13 4 10 32 17 9 -0 3 7
10 19 23 24 11 7 16 5 14 23 15 13 14 18 14 21 21 20 16 13 9 6 9 13 19 14 8 14 26 15 12 9 22 16 5 8 17 28 28 6 4 1 5 5
17 20 7 3 15 8 10 16 13 13 10 19 19 17 21 18 19 12 9 4 4 5 8 13 14 14 15 12 12 9 21 8 6 9 20 28 15 25 9 4 5 1 4 2
10 9 8 14 15 15 2 13 8 9 19 12 16 17 18 -4 9 8 1 4 6 7 21 13 12 9 4 14 20 5 5 11 22 19 9 18 21 18 6 3 2 3 3 2
6 16 13 9 10 6 21 5 6 14 17 13 11 16 12 10 12 5 5 9 16 26 21 42 13 16 26 5 6 6 18 17 9 13 16 17 17 8 5 3 3 4 4 4
14 8 6 9 10 16 4 -1 8 3 4 12 -3 10 1 27 3 2 11 16 24 14 16 14 20 10 4 5 6 21 12 13 14 13 13 10 12 6 5 6 4 5 6 5
20 9 20 15 20 16 10 9 16 4 6 4 10 9 5 9 7 15 8 23 20 11 11 7 5 9 5 6 21 12 9 9 12 12 8 12 8 7 8 7 7 8 6 5
5 9 -16 9 7 12 5 7 4 14 6 5 19 14 5 10 2 9 3 26 18 8 3 6 10 6 4 19 14 9 8 10 10 12 9 7 9 9 8 7 6 5 5 5
1 2 9 4 11 -15 12 27 7 10 4 7 12 6 6 1 6 3 10 18 27 4 11 0 5 6 8 18 10 10 10 8 9 11 10 8 8 7 6 5 6 6 6 5
-2 -2 22 2 5 8 4 5 6 8 12 16 5 6 11 5 5 9 13 13 23 17 1 4 6 5 9 17 9 7 9 9 10 9 9 9 8 9 8 7 8 7 7 7
Height
5778 5779 5781 5775 5772 5773 5772 5770 5770 5771 5770 5769 5769 5768 5767 5765 5765 5766 5764 5760 5757 5756 5754 5753 5751 5749 5745 5742 5739 5736 5732 5729 5726 5725 5725 5723 5721 5717 5714 5711 5709 5706 5704 5703
5770 5770 5773 5769 5766 5764 5763 5761 5761 5760 5760 5759 5759 5760 5758 5755 5754 5752 5749 5746 5745 5743 5741 5741 5740 5738 5735 5733 5729 5725 5721 5717 5715 5713 5712 5710 5707 5704 5702 5700 5697 5695 5692 5690
5758 5759 5761 5760 5758 5755 5753 5751 5749 5750 5750 5750 5749 5749 5747 5744 5742 5740 5737 5735 5732 5730 5729 5728 5728 5727 5724 5721 5717 5712 5708 5704 5704 5702 5701 5698 5695 5692 5690 5688 5685 5681 5678 5676
5747 5747 5748 5746 5746 5746 5745 5742 5738 5737 5738 5740 5739 5736 5740 5736 5734 5732 5728 5725 5722 5719 5719 5718 5716 5715 5712 5709 5704 5697 5696 5696 5693 5690 5687 5685 5683 5680 5677 5675 5673 5668 5664 5661
5737 5734 5735 5734 5734 5732 5734 5732 5730 5728 5726 5725 5725 5726 5731 5725 5724 5721 5719 5717 5715 5712 5710 5708 5707 5704 5701 5696 5689 5689 5687 5685 5681 5678 5676 5673 5669 5665 5663 5661 5660 5655 5650 5647
5724 5723 5720 5722 5722 5720 5719 5718 5717 5717 5715 5713 5716 5715 5716 5717 5713 5709 5708 5707 5706 5704 5702 5700 5696 5692 5688 5682 5681 5677 5675 5674 5670 5666 5662 5660 5656 5654 5650 5648 5646 5642 5638 5634
5712 5713 5712 5709 5707 5707 5707 5708 5706 5704 5702 5703 5703 5702 5703 5702 5700 5697 5695 5695 5694 5693 5690 5687 5684 5679 5676 5674 5670 5667 5664 5662 5659 5656 5652 5649 5645 5642 5638 5636 5634 5630 5625 5622
5699 5702 5700 5700 5698 5699 5695 5695 5694 5693 5692 5690 5689 5688 5690 5689 5688 5687 5684 5683 5681 5679 5677 5675 5672 5669 5665 5662 5659 5655 5653 5652 5648 5643 5640 5638 5633 5631 5627 5624 5621 5619 5614 5611
5687 5688 5686 5688 5687 5686 5687 5684 5687 5681 5680 5678 5678 5678 5678 5677 5678 5677 5675 5672 5670 5668 5666 5663 5661 5659 5655 5652 5649 5646 5643 5642 5638 5633 5628 5626 5622 5620 5617 5614 5611 5608 5604 5601
5674 5676 5675 5674 5675 5674 5673 5676 5672 5669 5668 5666 5667 5667 5666 5669 5668 5667 5666 5663 5660 5657 5655 5652 5649 5647 5644 5641 5638 5635 5633 5631 5628 5624 5621 5616 5613 5611 5609 5604 5600 5597 5594 5590
5661 5663 5667 5663 5663 5663 5662 5661 5659 5659 5658 5655 5656 5658 5657 5657 5656 5655 5655 5652 5650 5647 5645 5642 5639 5637 5634 5631 5628 5625 5622 5621 5618 5616 5613 5608 5605 5602 5600 5596 5592 5588 5584 5580
5649 5648 5651 5652 5652 5652 5650 5650 5648 5645 5647 5647 5647 5650 5650 5647 5645 5645 5643 5642 5640 5638 5636 5633 5630 5627 5624 5621 5618 5614 5613 5611 5609 5607 5604 5600 5598 5595 5592 5588 5584 5581 5577 5572
5638 5638 5640 5640 5642 5640 5641 5640 5637 5636 5635 5636 5637 5641 5642 5637 5636 5634 5633 5631 5630 5629 5626 5621 5617 5616 5614 5613 5610 5607 5605 5603 5600 5598 5596 5594 5591 5588 5585 5582 5579 5575 5570 5566
5626 5628 5631 5632 5632 5631 5632 5631 5628 5625 5625 5625 5626 5632 5633 5630 5627 5625 5623 5622 5621 5619 5616 5613 5609 5608 5607 5605 5602 5599 5596 5595 5592 5591 5588 5586 5584 5581 5579 5576 5573 5570 5566 5562
5616 5617 5620 5621 5620 5620 5621 5622 5619 5616 5618 5615 5622 5619 5622 5620 5618 5616 5615 5613 5612 5610 5607 5605 5603 5602 5601 5598 5594 5592 5590 5588 5585 5583 5580 5579 5576 5575 5573 5571 5569 5567 5564 5561
5606 5606 5608 5609 5610 5608 5610 5610 5610 5611 5611 5607 5609 5609 5610 5609 5607 5608 5606 5603 5601 5599 5599 5597 5596 5595 5593 5590 5588 5585 5582 5580 5578 5576 5574 5572 5570 5568 5567 5565 5565 5564 5562 5559
5596 5598 5600 5598 5600 5599 5602 5602 5602 5601 5602 5602 5601 5603 5598 5599 5598 5597 5594 5593 5592 5592 5590 5589 5588 5586 5585 5583 5580 5577 5575 5573 5572 5570 5568 5565 5564 5562 5561 5561 5562 5561 5560 5557
5585 5587 5588 5588 5589 5589 5594 5594 5593 5593 5593 5590 5590 5591 5590 5588 5588 5587 5585 5584 5585 5584 5582 5581 5579 5578 5577 5575 5572 5570 5569 5567 5566 5564 5561 5559 5557 5556 5556 5557 5558 5558 5557 5556
5576 5576 5577 5578 5579 5583 5584 5586 5584 5583 5584 5580 5580 5579 5580 5580 5580 5579 5578 5578 5577 5576 5574 5572 5571 5570 5569 5568 5566 5564 5562 5562 5560 5557 5555 5553 5552 5552 5553 5555 5555 5555 5554 5553
5568 5569 5571 5572 5573 5573 5580 5578 5575 5574 5575 5572 5572 5571 5572 5572 5574 5573 5572 5571 5570 5568 5565 5564 5563 5563 5562 5561 5559 5558 5557 5555 5553 5551 5550 5549 5549 5550 5551 5552 5552 5552 5552 5550
5560 5562 5563 5567 5565 5566 5574 5571 5569 5571 5573 5567 5566 5566 5566 5567 5567 5566 5565 5564 5562 5558 5556 5555 5556 5556 5555 5555 5554 5552 5550 5549 5548 5547 5547 5546 5547 5548 5548 5549 5549 5548 5547 5545
5555 5556 5559 5561 5560 5562 5565 5566 5567 5566 5564 5564 5563 5562 5562 5562 5561 5560 5559 5557 5554 5552 5550 5550 5550 5551 5550 5549 5547 5546 5546 5545 5544 5544 5544 5544 5544 5545 5545 5545 5545 5544 5543 5541
5550 5552 5556 5558 5558 5556 5558 5560 5559 5559 5561 5561 5560 5559 5558 5557 5555 5555 5553 5550 5547 5547 5547 5547 5546 5546 5545 5543 5542 5542 5541 5541 5541 5541 5541 5541 5541 5541 5541 5541 5540 5539 5538 5536
5545 5548 5550 5551 5552 5552 5552 5553 5554 5555 5555 5555 5555 5554 5553 5552 5551 5550 5547 5543 5541 5542 5543 5543 5542 5541 5540 5539 5538 5538 5538 5538 5537 5537 5537 5537 5537 5536 5536 5535 5534 5533 5532 5529
5541 5541 5544 5544 5545 5546 5547 5548 5549 5549 5549 5549 5548 5548 5547 5547 5545 5543 5541 5538 5536 5536 5537 5537 5537 5536 5535 5534 5534 5533 5533 5533 5533 5533 5532 5531 5531 5531 5530 5529 5528 5527 5525 5523
5534 5535 5534 5537 5538 5539 5542 5541 5542 5542 5542 5542 5543 5542 5541 5540 5539 5537 5535 5533 5531 5530 5531 5531 5532 5532 5531 5529 5529 5529 5528 5528 5528 5528 5527 5526 5525 5525 5524 5523 5522 5520 5518 5515